Regional Weather Roundup
Issued by NWS

Home | Current Version | Previous Version | Graphics & Text | Print | Product List | Glossary On
Versions: 1 2 3 4 5 6 7 8 9 10 11 12 13 14 15 16 17 18 19 20 21 22 23 24 25 26 27 28 29 30 31 32 33 34 35 36 37 38 39 40 41 42 43 44 45 46 47 48 49 50
319
ASUS43 KMKX 210621
RWRWI

WISCONSIN REGIONAL WEATHER ROUNDUP
NATIONAL WEATHER SERVICE MILWAUKEE/SULLIVAN WI
100 AM CDT MON AUG 21 2017

NOTE: "FAIR" INDICATES FEW OR NO CLOUDS BELOW 12,000 FEET WITH NO
SIGNIFICANT WEATHER AND/OR OBSTRUCTIONS TO VISIBILITY.

WIZ001-002-006>008-014>016-023>028-210700-
NORTHWEST WISCONSIN

CITY           SKY/WX    TMP DP  RH WIND       PRES   REMARKS
SUPERIOR ARPT    N/A     54  53  97 S3        30.03S
6HR MIN TEMP:  54; 6HR MAX TEMP:  72;

ASHLAND        CLEAR     55  54  96 S6        30.04R
6HR MIN TEMP:  55; 6HR MAX TEMP:  76;

HAYWARD        CLEAR     56  54  93 CALM      30.06S FOG
6HR MIN TEMP:  56; 6HR MAX TEMP:  73;

SIREN          CLEAR     58  57  96 CALM      30.05F
6HR MIN TEMP:  58; 6HR MAX TEMP:  76;

CUMBERLAND     CLOUDY    63  59  88 CALM      30.05S
RICE LAKE      CLOUDY    65  62  90 CALM      30.06S
6HR MIN TEMP:  65; 6HR MAX TEMP:  77;

CHETEK         CLOUDY    68  63  82 CALM      30.04S
6HR MIN TEMP:  68; 6HR MAX TEMP:  78;

LADYSMITH      CLOUDY    68  64  89 N3        30.06S
6HR MIN TEMP:  68; 6HR MAX TEMP:  77;

EAU CLAIRE     CLEAR     68  66  93 N5        30.01R
6HR MIN TEMP:  68; 6HR MAX TEMP:  80;

MENOMONIE      CLEAR     69  65  88 CALM      30.02S
6HR MIN TEMP:  68; 6HR MAX TEMP:  80;

NEW RICHMOND   CLEAR     63  62  98 CALM      30.04F
6HR MIN TEMP:  62; 6HR MAX TEMP:  75;

OSCEOLA        CLOUDY    61  61 100 CALM      30.06S
6HR MIN TEMP:  61; 6HR MAX TEMP:  76;

$$

WIZ003>005-009-010-017-018-210700-
NORTH CENTRAL WISCONSIN

CITY           SKY/WX    TMP DP  RH WIND       PRES   REMARKS
MANITOWISH WTR CLOUDY    61  61 100 CALM      30.06R
6HR MIN TEMP:  61; 6HR MAX TEMP:  73;

ARBOR VITAE    CLOUDY    67  62  83 CALM      30.05R
6HR MIN TEMP:  67; 6HR MAX TEMP:  77;

WOODRUFF       CLOUDY    67  62  83 CALM      30.05R
6HR MIN TEMP:  67; 6HR MAX TEMP:  77;

RHINELANDER    CLOUDY    68  67  96 CALM      30.06R
6HR MIN TEMP:  67; 6HR MAX TEMP:  76;

EAGLE RIVER    CLOUDY    66  64  91 N3        30.05R
6HR MIN TEMP:  65; 6HR MAX TEMP:  74;

LAND O LAKES   CLOUDY    67  60  76 CALM      30.07R
6HR MIN TEMP:  67; 6HR MAX TEMP:  76;

PHILLIPS       CLEAR     65  65  97 CALM      30.05R
6HR MIN TEMP:  65; 6HR MAX TEMP:  75;

TOMAHAWK         N/A     65  64  94 CALM      30.05S
6HR MIN TEMP:  65; 6HR MAX TEMP:  74;

MEDFORD        MOCLDY    64  64  97 CALM      30.05S
6HR MIN TEMP:  64; 6HR MAX TEMP:  76;

MERRILL        PTCLDY    64  64 100 CALM      30.05R
$$

WIZ029-030-035-036-043>047-210700-
CENTRAL WISCONSIN

CITY           SKY/WX    TMP DP  RH WIND       PRES   REMARKS
WAUSAU         PTCLDY    69  67  93 CALM      30.02S
6HR MIN TEMP:  68; 6HR MAX TEMP:  78;

MOSINEE        CLOUDY    64  64 100 CALM      30.05S
MARSHFIELD     PTCLDY    67  65  93 CALM      30.03S FOG
6HR MIN TEMP:  66; 6HR MAX TEMP:  78; 6HR PCP: TRACE;

STEVENS POINT  PTCLDY    66  66 100 CALM      30.04S
6HR MIN TEMP:  65; 6HR MAX TEMP:  77;

WAUPACA        CLOUDY    71  69  93 CALM      30.02F
6HR MIN TEMP:  70; 6HR MAX TEMP:  80;

WAUTOMA        CLOUDY    66  65  96 NW5       30.04F
6HR MIN TEMP:  65; 6HR MAX TEMP:  78;

WISC RAPIDS    PTCLDY    67  66  97 SW3       30.04S FOG
6HR MIN TEMP:  66; 6HR MAX TEMP:  78;

CAMP DOUGLAS   CLEAR     63  63 100 CALM      30.03R
6HR MIN TEMP:  65; 6HR MAX TEMP:  79; 6HR PCP: TRACE;

$$

WIZ011>013-019>022-031-037>040-048>050-210700-
NORTHEAST WISCONSIN

CITY           SKY/WX    TMP DP  RH WIND       PRES   REMARKS
ANTIGO         PTCLDY    64  64  99 S3        30.05F
6HR MIN TEMP:  64; 6HR MAX TEMP:  76;

SHAWANO        CLOUDY    72  67  83 W3        30.02S
6HR MIN TEMP:  72; 6HR MAX TEMP:  80;

OCONTO         PTCLDY    70  66  88 CALM      30.01R
6HR MIN TEMP:  70; 6HR MAX TEMP:  77;

STURGEON BAY   PTCLDY    73  68  84 SW9       30.02S
6HR MIN TEMP:  71; 6HR MAX TEMP:  73;

GREEN BAY      CLOUDY    72  70  93 SW6       30.02F
6HR MIN TEMP:  71; 6HR MAX TEMP:  77;

MANITOWOC      CLOUDY    69  66  90 CALM      30.04S
6HR MIN TEMP:  69; 6HR MAX TEMP:  74;

APPLETON       MOCLDY    68  66  94 SW6       30.02F
CLINTONVILLE   MOCLDY    70  66  88 CALM      30.02F
OSHKOSH        CLOUDY    69  65  86 CALM      30.03S
6HR MIN TEMP:  69; 6HR MAX TEMP:  77;

$$

WIZ032>034-041-042-053>061-210700-
SOUTHWEST WISCONSIN

CITY           SKY/WX    TMP DP  RH WIND       PRES   REMARKS
LA CROSSE      CLEAR     73  68  84 CALM      30.02R
6HR MIN TEMP:  71; 6HR MAX TEMP:  86; 6HR PCP: TRACE;

SPARTA         CLEAR     63  63 100 CALM      30.05R
6HR MIN TEMP:  63; 6HR MAX TEMP:  79;

VIROQUA        CLEAR     67  65  93 CALM      30.04F
6HR MIN TEMP:  66; 6HR MAX TEMP:  77;

BOSCOBEL       FOG       62  60  93 CALM      30.02F VSB 3/4
6HR MIN TEMP:  62; 6HR MAX TEMP:  82;

PRAIRIE DU CHI CLEAR     64  63  94 CALM      30.03F
6HR MIN TEMP:  64; 6HR MAX TEMP:  79;

PLATTEVILLE    CLEAR     65  65 100 CALM      30.05F
6HR MIN TEMP:  65; 6HR MAX TEMP:  76;

$$

WIZ056-057-062-063-064-067-068-210700-
SOUTH CENTRAL WISCONSIN

CITY           SKY/WX    TMP DP  RH WIND       PRES   REMARKS
REEDSBURG      CLEAR     64  64 100 CALM      30.03F
6HR MIN TEMP:  64; 6HR MAX TEMP:  78;

BARABOO/DELLS  CLEAR     65  63  94 CALM      30.03F
6HR MIN TEMP:  65; 6HR MAX TEMP:  78;

LONE ROCK      FOG       63  63 100 N3        30.03F VSB 1/4
6HR MIN TEMP:  62; 6HR MAX TEMP:  79;

MINERAL POINT  CLEAR     66  66 100 CALM      30.06S FOG
MADISON        CLEAR     64  63  96 CALM      30.04F FOG
6HR MIN TEMP:  64; 6HR MAX TEMP:  78;

MIDDLETON        N/A     62  62 100 CALM      30.05F VSB 1
6HR MIN TEMP:  62; 6HR MAX TEMP:  78;

WATERTOWN      FOG       64  64 100 CALM      30.05F VSB 1/2
6HR MIN TEMP:  62; 6HR MAX TEMP:  77;

MONROE         CLEAR     70  64  83 CALM      30.05F
JANESVILLE     PTCLDY    68  68 100 SE3       30.05S
$$

WIZ051-052-058>065-066-070>072-210700-
SOUTHEAST WISCONSIN

CITY           SKY/WX    TMP DP  RH WIND       PRES   REMARKS
MILWAUKEE      PTCLDY    70  66  87 CALM      30.05R
6HR MIN TEMP:  70; 6HR MAX TEMP:  79;

WAUKESHA       CLEAR     64  63  94 CALM      30.07S FOG
MILWAUKEE/TIMM CLEAR     66  63  88 CALM      30.06S
RACINE         CLOUDY    71  68  90 CALM      30.06S
6HR MIN TEMP:  68; 6HR MAX TEMP:  78;

KENOSHA        CLOUDY    71  67  87 E5        30.05S
6HR MIN TEMP:  70; 6HR MAX TEMP:  77;

FOND DU LAC    CLEAR     67  64  90 CALM      30.05S FOG
6HR MIN TEMP:  65; 6HR MAX TEMP:  77;

SHEBOYGAN      CLEAR     64  64 100 W3        30.04S FOG
6HR MIN TEMP:  64; 6HR MAX TEMP:  76;

WEST BEND      FOG       63  63 100 CALM      30.05F VSB 1/2
JUNEAU           N/A     64  64  97 CALM      30.07S FOG
6HR MIN TEMP:  64; 6HR MAX TEMP:  76;

$$

LSZ147-162-210700-
LAKE SUPERIOR

STATION/POSITION TIME  TEMP    WIND        PRES    WAVE
                       AIR SEA DIR/SP/G            HT/PER
                 (UTC) (F)     (DEG/KT/KT) (MB)    (FT/S)
W MID LAKE BUOY  0550   63 60  270/  8/ 10 1015.1R   1/ 4
DEVILS ISLAND    0600   64     240/  7/  8 1016.2R
PORT WING        0440          160/  4/  5 1016.3
SAXON HARBOR     0540   62     200/  5/  7 1016.3R
$$

LMZ867-665-643>646-210700-
LAKE MICHIGAN

STATION/POSITION TIME  TEMP    WIND        PRES    WAVE
                       AIR SEA DIR/SP/G            HT/PER
                 (UTC) (F)     (DEG/KT/KT) (MB)    (FT/S)
S GREEN BAY BUOY 0600   73 71  200/ 10/ 14 1015.7
N MID



USA.gov is the U.S. government's official web portal to all federal, state and local government web resources and services.